MEV-2

Last updated on Mon Sep 07 2026 00:03:01 GMT+0000 (Coordinated Universal Time)

1 46113U 20056B 26249.59156167 -.00000027 00000+0 00000+0 0 9999 2 46113 0.0506 267.2058 0000423 358.7604 291.6784 1.00271541 81513
UTC large
Height (km)
Speed (km/s)
/
Latitude / Longitude
Inclination (degrees)
Orbital Period (minutes)
Azimuth
Elevation
Range (km)
Doppler Factor

Next 0 passes for location: London (51.5072 / 0.1276)

No passes found over London.
MEV-2